When you browse on this site, cookies collect data to enhance your experience and personalize the content and advertising you see.
Visit our Privacy Policy to learn more. By continuing to use the site, you agree to this use of cookies and data.
EN

Hourly Weather Taba

Today, 14 July, Tuesday

Time Temperature Precipitation Wind Pressure Humidity
00:00 +21°C° 0 mm 3 mps 686 mmHg 64%
01:00 +20°C° 0 mm 3 mps 686 mmHg 64%
02:00 +20°C° 0 mm 3 mps 686 mmHg 64%
03:00 +19°C° 0 mm 2 mps 686 mmHg 63%
04:00 +19°C° 0 mm 2 mps 686 mmHg 63%
05:00 +18°C° 0 mm 2 mps 687 mmHg 63%
06:00 +21°C° 0 mm 2 mps 687 mmHg 53%
07:00 +25°C° 0 mm 2 mps 688 mmHg 42%
08:00 +28°C° 0 mm 2 mps 688 mmHg 30%
09:00 +30°C° 0 mm 2 mps 689 mmHg 26%
10:00 +32°C° 0 mm 2 mps 689 mmHg 21%
11:00 +35°C° 0 mm 2 mps 689 mmHg 17%
12:00 +36°C° 0 mm 2 mps 689 mmHg 16%
13:00 +37°C° 0 mm 2 mps 689 mmHg 14%
14:00 +37°C° 0 mm 1 mps 688 mmHg 13%
15:00 +38°C° 0 mm 2 mps 688 mmHg 13%
16:00 +38°C° 0 mm 2 mps 689 mmHg 14%
17:00 +37°C° 0 mm 3 mps 689 mmHg 14%
18:00 +35°C° 0 mm 3 mps 688 mmHg 21%
19:00 +32°C° 0 mm 4 mps 688 mmHg 28%
20:00 +28°C° 0 mm 4 mps 688 mmHg 34%
21:00 +27°C° 0 mm 3 mps 688 mmHg 41%
22:00 +26°C° 0 mm 2 mps 689 mmHg 48%
23:00 +25°C° 0 mm 2 mps 689 mmHg 54%

Tomorrow, 15 July, Wednesday

Time Temperature Precipitation Wind Pressure Humidity
00:00 +24°C° 0 mm 1 mps 689 mmHg 56%
01:00 +23°C° 0 mm 1 mps 689 mmHg 58%
02:00 +23°C° 0 mm 1 mps 689 mmHg 60%
03:00 +23°C° 0 mm 1 mps 689 mmHg 59%
04:00 +23°C° 0 mm 1 mps 689 mmHg 58%
05:00 +23°C° 0 mm 1 mps 689 mmHg 57%
06:00 +25°C° 0 mm 2 mps 690 mmHg 47%
07:00 +28°C° 0 mm 2 mps 690 mmHg 36%
08:00 +31°C° 0 mm 2 mps 691 mmHg 25%
09:00 +34°C° 0 mm 2 mps 691 mmHg 22%
10:00 +35°C° 0 mm 3 mps 691 mmHg 19%
11:00 +37°C° 0 mm 3 mps 691 mmHg 15%
12:00 +38°C° 0 mm 3 mps 691 mmHg 15%
13:00 +39°C° 0 mm 2 mps 690 mmHg 14%
14:00 +40°C° 0 mm 2 mps 690 mmHg 13%
15:00 +39°C° 0 mm 3 mps 690 mmHg 13%
16:00 +40°C° 0 mm 5 mps 690 mmHg 14%
17:00 +40°C° 0 mm 6 mps 690 mmHg 14%
18:00 +35°C° 0 mm 5 mps 689 mmHg 24%
19:00 +32°C° 0 mm 5 mps 689 mmHg 34%
20:00 +27°C° 0 mm 5 mps 689 mmHg 44%
21:00 +26°C° 0 mm 4 mps 689 mmHg 48%
22:00 +25°C° 0 mm 4 mps 689 mmHg 52%
23:00 +24°C° 0 mm 3 mps 689 mmHg 56%

Day after tomorrow, 16 July, Thursday

Time Temperature Precipitation Wind Pressure Humidity
00:00 +22°C° 0 mm 3 mps 689 mmHg 59%
01:00 +22°C° 0 mm 3 mps 689 mmHg 63%
02:00 +21°C° 0 mm 3 mps 688 mmHg 66%
03:00 +21°C° 0 mm 3 mps 688 mmHg 68%
04:00 +20°C° 0 mm 3 mps 688 mmHg 70%
05:00 +20°C° 0 mm 3 mps 688 mmHg 73%
06:00 +22°C° 0 mm 3 mps 688 mmHg 66%
07:00 +25°C° 0 mm 3 mps 689 mmHg 59%
08:00 +27°C° 0 mm 4 mps 689 mmHg 52%
09:00 +29°C° 0 mm 4 mps 689 mmHg 42%
10:00 +33°C° 0 mm 5 mps 689 mmHg 33%
11:00 +35°C° 0 mm 5 mps 689 mmHg 24%
12:00 +37°C° 0 mm 5 mps 689 mmHg 21%
13:00 +39°C° 0 mm 5 mps 688 mmHg 19%
14:00 +40°C° 0 mm 5 mps 688 mmHg 16%
15:00 +39°C° 0 mm 6 mps 688 mmHg 18%
16:00 +39°C° 0 mm 7 mps 687 mmHg 21%
17:00 +38°C° 0 mm 8 mps 687 mmHg 23%
18:00 +33°C° 0 mm 8 mps 687 mmHg 35%
19:00 +29°C° 0 mm 8 mps 687 mmHg 48%
20:00 +26°C° 0 mm 7 mps 686 mmHg 60%
21:00 +24°C° 0 mm 6 mps 687 mmHg 66%
22:00 +22°C° 0 mm 5 mps 687 mmHg 71%
23:00 +21°C° 0 mm 4 mps 687 mmHg 77%

17 July, Friday

Time Temperature Precipitation Wind Pressure Humidity
00:00 +20°C° 0 mm 4 mps 686 mmHg 81%
01:00 +20°C° 0 mm 4 mps 686 mmHg 85%
02:00 +19°C° 0 mm 4 mps 686 mmHg 88%
03:00 +19°C° 0 mm 4 mps 686 mmHg 88%
04:00 +19°C° 0 mm 3 mps 686 mmHg 88%
05:00 +19°C° 0 mm 3 mps 686 mmHg 87%
06:00 +21°C° 0 mm 3 mps 686 mmHg 74%
07:00 +24°C° 0 mm 3 mps 687 mmHg 61%
08:00 +26°C° 0 mm 3 mps 687 mmHg 47%
09:00 +28°C° 0 mm 3 mps 687 mmHg 39%
10:00 +31°C° 0 mm 3 mps 687 mmHg 31%
11:00 +35°C° 0 mm 3 mps 687 mmHg 23%
12:00 +36°C° 0 mm 3 mps 687 mmHg 21%
13:00 +38°C° 0 mm 3 mps 687 mmHg 19%
14:00 +39°C° 0 mm 3 mps 687 mmHg 17%
15:00 +38°C° 0 mm 4 mps 687 mmHg 18%
16:00 +38°C° 0 mm 4 mps 687 mmHg 18%
17:00 +37°C° 0 mm 5 mps 686 mmHg 19%
18:00 +34°C° 0 mm 6 mps 686 mmHg 29%
19:00 +30°C° 0 mm 6 mps 686 mmHg 40%
20:00 +26°C° 0 mm 6 mps 687 mmHg 50%
21:00 +25°C° 0 mm 5 mps 687 mmHg 52%
22:00 +23°C° 0 mm 4 mps 687 mmHg 55%
23:00 +22°C° 0 mm 3 mps 687 mmHg 57%

18 July, Saturday

Time Temperature Precipitation Wind Pressure Humidity
00:00 +21°C° 0 mm 3 mps 687 mmHg 61%
01:00 +21°C° 0 mm 2 mps 687 mmHg 64%
02:00 +20°C° 0 mm 2 mps 687 mmHg 67%
03:00 +20°C° 0 mm 2 mps 687 mmHg 64%
04:00 +20°C° 0 mm 2 mps 687 mmHg 61%
05:00 +20°C° 0 mm 2 mps 687 mmHg 58%
06:00 +23°C° 0 mm 1 mps 687 mmHg 49%
07:00 +26°C° 0 mm 1 mps 688 mmHg 39%
08:00 +28°C° 0 mm 1 mps 688 mmHg 30%
09:00 +30°C° 0 mm 1 mps 689 mmHg 26%
10:00 +34°C° 0 mm 2 mps 689 mmHg 23%
11:00 +36°C° 0 mm 2 mps 689 mmHg 19%
12:00 +38°C° 0 mm 2 mps 689 mmHg 17%
13:00 +39°C° 0 mm 3 mps 689 mmHg 15%
14:00 +41°C° 0 mm 4 mps 689 mmHg 14%
15:00 +40°C° 0 mm 4 mps 688 mmHg 14%
16:00 +40°C° 0 mm 5 mps 688 mmHg 14%
17:00 +39°C° 0 mm 5 mps 688 mmHg 15%
18:00 +35°C° 0 mm 4 mps 688 mmHg 26%
19:00 +30°C° 0 mm 4 mps 688 mmHg 37%
20:00 +27°C° 0 mm 3 mps 689 mmHg 49%
21:00 +26°C° 0 mm 3 mps 689 mmHg 52%
22:00 +25°C° 0 mm 2 mps 689 mmHg 56%
23:00 +24°C° 0 mm 2 mps 689 mmHg 59%

19 July, Sunday

Time Temperature Precipitation Wind Pressure Humidity
00:00 +24°C° 0 mm 2 mps 689 mmHg 58%
01:00 +23°C° 0 mm 2 mps 689 mmHg 56%
02:00 +23°C° 0 mm 2 mps 689 mmHg 54%
03:00 +22°C° 0 mm 1 mps 689 mmHg 55%
04:00 +22°C° 0 mm 1 mps 689 mmHg 56%
05:00 +22°C° 0 mm 1 mps 689 mmHg 56%
06:00 +24°C° 0 mm 1 mps 689 mmHg 49%
07:00 +27°C° 0 mm 1 mps 690 mmHg 43%
08:00 +29°C° 0 mm 2 mps 690 mmHg 36%
09:00 +32°C° 0 mm 2 mps 690 mmHg 30%
10:00 +34°C° 0 mm 1 mps 690 mmHg 24%
11:00 +37°C° 0 mm 1 mps 691 mmHg 18%
12:00 +39°C° 0 mm 2 mps 690 mmHg 16%
13:00 +40°C° 0 mm 3 mps 690 mmHg 14%
14:00 +43°C° 0 mm 4 mps 690 mmHg 12%
15:00 +42°C° 0 mm 4 mps 690 mmHg 12%
16:00 +40°C° 0 mm 3 mps 690 mmHg 12%
17:00 +40°C° 0 mm 3 mps 689 mmHg 13%
18:00 +36°C° 0 mm 3 mps 689 mmHg 24%
19:00 +33°C° 0 mm 3 mps 689 mmHg 34%
20:00 +28°C° 0 mm 3 mps 689 mmHg 45%
21:00 +27°C° 0 mm 3 mps 689 mmHg 48%
22:00 +26°C° 0 mm 3 mps 689 mmHg 51%
23:00 +26°C° 0 mm 2 mps 689 mmHg 54%
Show more